CW3827 Weather Reports


Display with metric or nautical units.
time (UTC)temp
F
wind
direction
speed
MPH
gust
MPH
rain 1hr
in
rain 24hr
in
rain mn
in
humidity
%
barometer
mb
20260507204504 72 77 16.0 22.0 0.00 0.00 0.00 16 1019.5
20260507203003 72 111 14.0 22.0 0.00 0.00 0.00 17 1019.6
20260507201508 71 79 15.0 22.0 0.00 0.00 0.00 17 1020.0
20260507200019 71 48 10.0 21.0 0.00 0.00 0.00 18 1020.1
20260507194518 70 64 8.0 19.0 0.00 0.00 0.00 18 1020.4
20260507193011 70 9 11.0 22.0 0.00 0.00 0.00 18 1020.7
20260507191508 69 22 13.0 21.0 0.00 0.00 0.00 19 1020.9
20260507190005 70 116 13.0 20.0 0.00 0.00 0.00 19 1021.0
20260507184514 68 85 1.0 17.0 0.00 0.00 0.00 22 1021.1
20260507183025 68 342 0.0 17.0 0.00 0.00 0.00 24 1021.4
20260507181519 67 74 6.0 18.0 0.00 0.00 0.00 24 1021.6
20260507180014 66 72 13.0 19.0 0.00 0.00 0.00 26 1021.7
20260507174513 66 79 11.0 16.0 0.00 0.00 0.00 27 1021.9
20260507173006 65 74 10.0 14.0 0.00 0.00 0.00 28 1021.9
20260507171506 64 91 1.0 15.0 0.00 0.00 0.00 28 1022.0
20260507170022 64 34 7.0 16.0 0.00 0.00 0.00 30 1022.1
20260507164520 64 82 8.0 15.0 0.00 0.00 0.00 30 1022.1
20260507163015 64 75 0.0 14.0 0.00 0.00 0.00 31 1022.2
20260507161513 65 167 2.0 13.0 0.00 0.00 0.00 31 1022.1
20260507160013 64 193 5.0 10.0 0.00 0.00 0.00 34 1022.2
20260507154516 61 231 0.0 9.0 0.00 0.00 0.00 38 1022.3
20260507153037 59 354 8.0 19.0 0.00 0.00 0.00 43 1022.5
20260507151521 57 66 14.0 21.0 0.00 0.00 0.00 47 1022.7
20260507150020 56 60 17.0 22.0 0.00 0.00 0.00 50 1022.7
20260507144518 54 37 18.0 23.0 0.00 0.00 0.00 53 1022.8
20260507143021 52 114 18.0 24.0 0.00 0.00 0.00 56 1022.7
20260507141527 51 79 17.0 26.0 0.00 0.00 0.00 60 1022.7
20260507140029 49 89 20.0 27.0 0.00 0.00 0.00 64 1022.7
20260507134505 47 84 21.0 28.0 0.00 0.00 0.00 67 1022.8
20260507133003 45 43 18.0 29.0 0.00 0.00 0.00 71 1022.6
20260507131505 44 50 21.0 28.0 0.00 0.00 0.00 73 1022.5
20260507130027 43 26 20.0 28.0 0.00 0.00 0.00 74 1022.6
20260507124519 42 99 20.0 28.0 0.00 0.00 0.00 76 1022.3
20260507123010 41 70 21.0 29.0 0.00 0.00 0.00 77 1022.2
20260507121506 41 220 18.0 29.0 0.00 0.00 0.00 77 1022.1
20260507120006 41 163 20.0 26.0 0.00 0.00 0.00 77 1022.2
20260507114524 41 72 19.0 27.0 0.00 0.00 0.00 76 1022.1
20260507113023 41 54 20.0 28.0 0.00 0.00 0.00 75 1022.1
20260507111517 42 68 23.0 29.0 0.00 0.00 0.00 73 1022.0
20260507110015 42 39 21.0 32.0 0.00 0.00 0.00 72 1022.1
20260507103013 43 46 23.0 31.0 0.00 0.00 0.00 70 1022.0
20260507101526 43 88 23.0 30.0 0.00 0.00 0.00 71 1022.1
20260507100027 43 50 20.0 26.0 0.00 0.00 0.00 71 1022.2
20260507094519 43 68 19.0 25.0 0.00 0.00 0.00 71 1022.1
20260507093016 43 61 20.0 28.0 0.00 0.00 0.00 70 1022.1
20260507091517 44 43 20.0 27.0 0.00 0.00 0.00 70 1022.1
20260507090008 43 23 18.0 22.0 0.00 0.00 0.00 71 1022.3
20260507084526 42 96 15.0 19.0 0.00 0.00 0.00 70 1022.5
20260507083021 42 70 13.0 21.0 0.00 0.00 0.00 70 1022.5
20260507081522 43 24 14.0 19.0 0.00 0.00 0.00 70 1022.5
20260507080018 43 54 15.0 21.0 0.00 0.00 0.00 69 1022.6
20260507074516 44 58 17.0 22.0 0.00 0.00 0.00 68 1022.7
20260507073026 45 71 17.0 22.0 0.00 0.00 0.00 67 1022.7
20260507071556 43 17 16.0 22.0 0.00 0.00 0.00 71 1022.9
20260507070025 44 77 18.0 22.0 0.00 0.00 0.00 69 1022.7
20260507064523 44 47 17.0 24.0 0.00 0.00 0.00 70 1022.5
20260507063020 44 67 17.0 27.0 0.00 0.00 0.00 70 1022.4
20260507061519 46 89 16.0 29.0 0.00 0.00 0.00 67 1022.3
20260507060026 48 77 17.0 23.0 0.00 0.00 0.00 63 1022.3
20260507054528 49 70 14.0 22.0 0.00 0.00 0.00 62 1022.1
20260507053025 49 73 16.0 23.0 0.00 0.00 0.00 61 1022.1
20260507051531 49 74 20.0 27.0 0.00 0.00 0.00 61 1021.9
20260507050032 50 32 19.0 27.0 0.00 0.00 0.00 60 1021.8
20260507044503 50 57 19.0 27.0 0.00 0.00 0.00 59 1021.5
20260507043009 51 66 18.0 43.0 0.00 0.00 0.00 56 1021.3
20260507041504 56 150 7.0 13.0 0.00 0.00 0.00 33 1021.5
20260507040004 58 44 10.0 15.0 0.00 0.00 0.00 30 1020.7
20260507034505 58 109 0.0 10.0 0.00 0.00 0.00 21 1020.3
20260507033013 60 86 6.0 13.0 0.00 0.00 0.00 19 1019.5
20260507031503 59 8 8.0 13.0 0.00 0.00 0.00 20 1019.3
20260507030004 59 53 8.0 14.0 0.00 0.00 0.00 20 1019.1
20260507024504 59 52 7.0 13.0 0.00 0.00 0.00 20 1018.8
20260507023011 59 41 8.0 12.0 0.00 0.00 0.00 20 1018.6
20260507021504 59 65 10.0 13.0 0.00 0.00 0.00 21 1018.3
20260507020006 60 61 8.0 12.0 0.00 0.00 0.00 20 1018.1
20260507014507 62 72 7.0 12.0 0.00 0.00 0.00 19 1017.9
20260507013004 63 63 9.0 17.0 0.00 0.00 0.00 18 1017.8
20260507011506 65 88 15.0 22.0 0.00 0.00 0.00 17 1017.6
20260507010007 66 60 13.0 25.0 0.00 0.00 0.00 17 1017.6
20260507004504 66 59 11.0 20.0 0.00 0.00 0.00 17 1017.5
20260507003008 66 55 12.0 20.0 0.00 0.00 0.00 16 1017.4
20260507001504 67 26 17.0 25.0 0.00 0.00 0.00 16 1017.2
20260507000011 67 56 15.0 23.0 0.00 0.00 0.00 16 1017.2
20260506234509 67 58 12.0 27.0 0.00 0.00 0.00 16 1017.0
20260506233008 67 55 11.0 21.0 0.00 0.00 0.00 17 1017.0
20260506231510 67 63 14.0 23.0 0.00 0.00 0.00 17 1017.0
20260506230009 68 58 17.0 24.0 0.00 0.00 0.00 17 1017.0
20260506224507 68 110 19.0 30.0 0.00 0.00 0.00 16 1016.7
20260506223009 68 97 18.0 26.0 0.00 0.00 0.00 16 1016.8
20260506221510 67 105 17.0 28.0 0.00 0.00 0.00 16 1016.8
20260506220028 67 82 16.0 30.0 0.00 0.00 0.00 16 1016.8
20260506214511 67 54 18.0 26.0 0.00 0.00 0.00 16 1017.1
20260506213013 66 64 18.0 28.0 0.00 0.00 0.00 17 1017.1
20260506211513 67 50 17.0 26.0 0.00 0.00 0.00 17 1017.2
20260506210015 66 85 13.0 26.0 0.00 0.00 0.00 18 1017.2